| time (UTC) | temp F | wind direction | speed MPH | gust MPH | rain 1hr in | rain 24hr in | rain mn in | humidity % | barometer mb |
| 20260507010520 | 58 | 251 | 3.0 | 9.0 | 0.00 | 0.07 | 0.07 | 99 | 1009.6 |
| 20260507010017 | 58 | 287 | 4.0 | 5.0 | 0.00 | 0.07 | 0.07 | 99 | 1009.8 |
| 20260507005515 | 58 | 288 | 4.0 | 10.0 | 0.00 | 0.07 | 0.07 | 99 | 1009.8 |
| 20260507005011 | 58 | 317 | 2.0 | 2.0 | 0.00 | 0.07 | 0.07 | 99 | 1009.8 |
| 20260507004508 | 58 | 303 | 0.0 | 5.0 | 0.00 | 0.07 | 0.07 | 99 | 1009.9 |
| 20260507004006 | 58 | 250 | 3.0 | 7.0 | 0.00 | 0.07 | 0.07 | 99 | 1009.7 |
| 20260507003501 | 58 | 272 | 0.0 | 5.0 | 0.00 | 0.07 | 0.07 | 99 | 1009.8 |
| 20260507002955 | 58 | 306 | 4.0 | 9.0 | 0.00 | 0.07 | 0.07 | 99 | 1009.8 |
| 20260507002453 | 58 | 342 | 2.0 | 6.0 | 0.00 | 0.07 | 0.07 | 99 | 1009.8 |
| 20260507001949 | 58 | 247 | 3.0 | 11.0 | 0.00 | 0.07 | 0.07 | 99 | 1009.6 |
| 20260507001446 | 58 | 354 | 0.0 | 6.0 | 0.00 | 0.07 | 0.07 | 99 | 1009.5 |
| 20260507000944 | 58 | 213 | 4.0 | 8.0 | 0.00 | 0.07 | 0.07 | 99 | 1009.6 |
| 20260507000439 | 58 | 292 | 7.0 | 9.0 | 0.00 | 0.07 | 0.07 | 99 | 1009.7 |
| 20260506235934 | 58 | 272 | 4.0 | 7.0 | 0.00 | 0.07 | 0.07 | 99 | 1009.7 |
| 20260506235432 | 58 | 237 | 4.0 | 8.0 | 0.00 | 0.07 | 0.07 | 99 | 1009.5 |
| 20260506234927 | 58 | 318 | 2.0 | 5.0 | 0.00 | 0.07 | 0.07 | 99 | 1009.4 |
| 20260506234426 | 58 | 238 | 2.0 | 3.0 | 0.00 | 0.07 | 0.07 | 99 | 1009.6 |
| 20260506233923 | 58 | 2 | 2.0 | 3.0 | 0.05 | 0.07 | 0.07 | 99 | 1009.2 |
| 20260506233419 | 58 | 350 | 2.0 | 3.0 | 0.05 | 0.07 | 0.07 | 99 | 1009.5 |
| 20260506232916 | 58 | 221 | 7.0 | 9.0 | 0.00 | 0.06 | 0.06 | 99 | 1009.2 |
| 20260506232412 | 58 | 312 | 2.0 | 3.0 | 0.00 | 0.06 | 0.06 | 99 | 1009.3 |
| 20260506231908 | 58 | 271 | 3.0 | 7.0 | 0.00 | 0.06 | 0.06 | 98 | 1009.3 |
| 20260506231406 | 58 | 310 | 5.0 | 6.0 | 0.00 | 0.06 | 0.06 | 98 | 1009.3 |
| 20260506230903 | 59 | 229 | 4.0 | 9.0 | 0.00 | 0.06 | 0.06 | 97 | 1009.4 |
| 20260506230400 | 59 | 327 | 2.0 | 6.0 | 0.00 | 0.06 | 0.06 | 97 | 1009.4 |
| 20260506225856 | 59 | 243 | 4.0 | 7.0 | 0.00 | 0.06 | 0.06 | 96 | 1009.3 |
| 20260506225353 | 59 | 335 | 4.0 | 7.0 | 0.00 | 0.06 | 0.06 | 96 | 1009.6 |
| 20260506224850 | 59 | 242 | 5.0 | 7.0 | 0.00 | 0.06 | 0.06 | 96 | 1009.5 |
| 20260506224348 | 59 | 207 | 4.0 | 6.0 | 0.00 | 0.06 | 0.06 | 96 | 1009.5 |
| 20260506223844 | 59 | 257 | 6.0 | 8.0 | 0.00 | 0.06 | 0.06 | 97 | 1009.2 |
| 20260506223339 | 59 | 253 | 3.0 | 5.0 | 0.00 | 0.06 | 0.06 | 97 | 1009.3 |
| 20260506222836 | 59 | 194 | 2.0 | 3.0 | 0.00 | 0.06 | 0.06 | 97 | 1009.3 |
| 20260506222332 | 59 | 286 | 3.0 | 8.0 | 0.00 | 0.06 | 0.06 | 97 | 1009.3 |
| 20260506221830 | 59 | 178 | 3.0 | 7.0 | 0.00 | 0.06 | 0.06 | 98 | 1009.5 |
| 20260506221327 | 59 | 268 | 5.0 | 10.0 | 0.00 | 0.06 | 0.06 | 99 | 1009.4 |
| 20260506220825 | 59 | 233 | 5.0 | 7.0 | 0.00 | 0.06 | 0.06 | 99 | 1009.6 |
| 20260506220320 | 59 | 292 | 2.0 | 9.0 | 0.00 | 0.06 | 0.06 | 99 | 1009.9 |
| 20260506215817 | 59 | 276 | 4.0 | 6.0 | 0.07 | 0.06 | 0.06 | 99 | 1009.9 |
| 20260506215313 | 59 | 207 | 5.0 | 7.0 | 0.07 | 0.06 | 0.06 | 98 | 1009.7 |
| 20260506214809 | 59 | 248 | 6.0 | 7.0 | 0.00 | 0.05 | 0.05 | 98 | 1009.8 |
| 20260506214305 | 59 | 176 | 1.0 | 2.0 | 0.00 | 0.05 | 0.05 | 98 | 1009.6 |
| 20260506213804 | 59 | 236 | 6.0 | 8.0 | 0.00 | 0.05 | 0.05 | 97 | 1009.8 |
| 20260506213300 | 59 | 251 | 4.0 | 6.0 | 0.00 | 0.05 | 0.05 | 97 | 1009.8 |
| 20260506212758 | 59 | 246 | 9.0 | 14.0 | 0.00 | 0.05 | 0.05 | 96 | 1010.1 |
| 20260506212254 | 60 | 256 | 4.0 | 7.0 | 0.00 | 0.05 | 0.05 | 96 | 1010.1 |
| 20260506211749 | 59 | 301 | 5.0 | 8.0 | 0.00 | 0.05 | 0.05 | 96 | 1009.9 |
| 20260506211245 | 59 | 298 | 2.0 | 6.0 | 0.00 | 0.05 | 0.05 | 97 | 1010.1 |
| 20260506210743 | 59 | 239 | 5.0 | 7.0 | 0.00 | 0.05 | 0.05 | 97 | 1010.2 |
| 20260506210239 | 59 | 183 | 5.0 | 9.0 | 0.07 | 0.05 | 0.05 | 97 | 1010.1 |
| 20260506205736 | 59 | 214 | 4.0 | 10.0 | 0.07 | 0.05 | 0.05 | 97 | 1010.3 |
| 20260506205232 | 60 | 211 | 2.0 | 9.0 | 0.05 | 0.04 | 0.04 | 96 | 1010.3 |
| 20260506204729 | 60 | 238 | 5.0 | 8.0 | 0.05 | 0.04 | 0.04 | 96 | 1010.3 |
| 20260506204226 | 60 | 241 | 7.0 | 11.0 | 0.07 | 0.03 | 0.03 | 95 | 1010.3 |
| 20260506203724 | 60 | 315 | 5.0 | 9.0 | 0.07 | 0.03 | 0.03 | 94 | 1010.2 |
| 20260506203215 | 60 | 325 | 4.0 | 13.0 | 0.00 | 0.02 | 0.02 | 93 | 1010.3 |
| 20260506202713 | 60 | 273 | 2.0 | 13.0 | 0.00 | 0.02 | 0.02 | 93 | 1010.4 |
| 20260506202209 | 60 | 9 | 1.0 | 11.0 | 0.00 | 0.02 | 0.02 | 93 | 1010.6 |
| 20260506201706 | 60 | 303 | 4.0 | 9.0 | 0.00 | 0.02 | 0.02 | 93 | 1010.6 |
| 20260506201203 | 60 | 223 | 7.0 | 10.0 | 0.00 | 0.02 | 0.02 | 93 | 1010.5 |
| 20260506200659 | 61 | 219 | 7.0 | 8.0 | 0.00 | 0.02 | 0.02 | 93 | 1010.4 |
| 20260506200156 | 61 | 270 | 3.0 | 6.0 | 0.00 | 0.02 | 0.02 | 93 | 1010.3 |
| 20260506195653 | 61 | 293 | 3.0 | 10.0 | 0.05 | 0.02 | 0.02 | 92 | 1010.4 |
| 20260506195149 | 61 | 247 | 3.0 | 6.0 | 0.00 | 0.01 | 0.01 | 91 | 1010.3 |
| 20260506194647 | 61 | 271 | 2.0 | 3.0 | 0.00 | 0.01 | 0.01 | 91 | 1010.3 |
| 20260506194143 | 62 | 295 | 4.0 | 9.0 | 0.00 | 0.01 | 0.01 | 89 | 1010.1 |
| 20260506193641 | 62 | 307 | 3.0 | 11.0 | 0.00 | 0.01 | 0.01 | 87 | 1010.3 |
| 20260506193138 | 62 | 278 | 7.0 | 14.0 | 0.07 | 0.01 | 0.01 | 86 | 1010.6 |
| 20260506192634 | 63 | 230 | 4.0 | 8.0 | 0.07 | 0.01 | 0.01 | 85 | 1010.6 |
| 20260506192130 | 63 | 297 | 5.0 | 8.0 | 0.00 | 0.00 | 0.00 | 84 | 1010.5 |
| 20260506191627 | 63 | 279 | 6.0 | 8.0 | 0.00 | 0.00 | 0.00 | 83 | 1010.5 |
| 20260506191123 | 63 | 160 | 2.0 | 10.0 | 0.00 | 0.00 | 0.00 | 83 | 1010.6 |
| 20260506190621 | 64 | 229 | 7.0 | 10.0 | 0.00 | 0.00 | 0.00 | 81 | 1010.6 |
| 20260506190118 | 64 | 269 | 5.0 | 14.0 | 0.00 | 0.00 | 0.00 | 79 | 1010.6 |
| 20260506185615 | 65 | 283 | 9.0 | 14.0 | 0.00 | 0.00 | 0.00 | 77 | 1010.7 |
| 20260506185111 | 66 | 255 | 6.0 | 13.0 | 0.00 | 0.00 | 0.00 | 75 | 1010.8 |
| 20260506184609 | 67 | 229 | 5.0 | 6.0 | 0.00 | 0.00 | 0.00 | 73 | 1010.7 |
| 20260506184106 | 67 | 262 | 5.0 | 8.0 | 0.00 | 0.00 | 0.00 | 72 | 1010.4 |
| 20260506183602 | 67 | 140 | 7.0 | 10.0 | 0.00 | 0.00 | 0.00 | 70 | 1010.6 |
| 20260506183058 | 68 | 214 | 5.0 | 13.0 | 0.00 | 0.00 | 0.00 | 70 | 1010.9 |
| 20260506182556 | 68 | 225 | 6.0 | 9.0 | 0.00 | 0.00 | 0.00 | 69 | 1010.9 |
| 20260506182053 | 68 | 195 | 6.0 | 11.0 | 0.00 | 0.00 | 0.00 | 68 | 1010.8 |
| 20260506181551 | 68 | 274 | 5.0 | 8.0 | 0.00 | 0.00 | 0.00 | 67 | 1010.8 |
| 20260506181047 | 69 | 259 | 8.0 | 13.0 | 0.00 | 0.00 | 0.00 | 66 | 1010.7 |
| 20260506180544 | 69 | 265 | 8.0 | 10.0 | 0.00 | 0.00 | 0.00 | 66 | 1010.8 |
| 20260506180040 | 69 | 222 | 10.0 | 14.0 | 0.00 | 0.00 | 0.00 | 65 | 1010.9 |
| 20260506175537 | 70 | 279 | 6.0 | 13.0 | 0.00 | 0.00 | 0.00 | 65 | 1010.9 |
| 20260506175033 | 70 | 255 | 4.0 | 7.0 | 0.00 | 0.00 | 0.00 | 65 | 1010.9 |
| 20260506174532 | 70 | 260 | 8.0 | 9.0 | 0.00 | 0.00 | 0.00 | 64 | 1010.8 |
| 20260506174028 | 70 | 298 | 6.0 | 11.0 | 0.00 | 0.00 | 0.00 | 64 | 1010.9 |
| 20260506173526 | 70 | 319 | 10.0 | 16.0 | 0.00 | 0.00 | 0.00 | 63 | 1011.2 |
| 20260506173022 | 70 | 196 | 8.0 | 22.0 | 0.00 | 0.00 | 0.00 | 63 | 1011.4 |
| 20260506172520 | 71 | 276 | 6.0 | 10.0 | 0.00 | 0.00 | 0.00 | 64 | 1011.2 |
| 20260506172016 | 71 | 233 | 3.0 | 11.0 | 0.00 | 0.00 | 0.00 | 61 | 1011.4 |
| 20260506171514 | 71 | 334 | 10.0 | 14.0 | 0.00 | 0.00 | 0.00 | 61 | 1011.2 |
| 20260506171011 | 71 | 279 | 6.0 | 13.0 | 0.00 | 0.00 | 0.00 | 61 | 1011.2 |
| 20260506170508 | 71 | 296 | 10.0 | 22.0 | 0.00 | 0.00 | 0.00 | 62 | 1011.2 |
| 20260506170006 | 71 | 229 | 3.0 | 15.0 | 0.00 | 0.00 | 0.00 | 62 | 1011.1 |
| 20260506165504 | 71 | 262 | 7.0 | 10.0 | 0.00 | 0.00 | 0.00 | 62 | 1011.0 |
| 20260506165000 | 72 | 279 | 8.0 | 20.0 | 0.00 | 0.00 | 0.00 | 61 | 1011.3 |
| 20260506164457 | 71 | 286 | 3.0 | 14.0 | 0.00 | 0.00 | 0.00 | 62 | 1011.5 |
| 20260506163954 | 71 | 228 | 8.0 | 18.0 | 0.00 | 0.00 | 0.00 | 62 | 1011.6 |
| 20260506163449 | 71 | 233 | 7.0 | 22.0 | 0.00 | 0.00 | 0.00 | 62 | 1011.8 |
| 20260506162944 | 71 | 260 | 7.0 | 13.0 | 0.00 | 0.00 | 0.00 | 63 | 1011.8 |
| 20260506162442 | 71 | 212 | 13.0 | 15.0 | 0.00 | 0.00 | 0.00 | 62 | 1011.9 |
| 20260506161934 | 71 | 231 | 5.0 | 15.0 | 0.00 | 0.00 | 0.00 | 62 | 1011.7 |
| 20260506161432 | 71 | 276 | 4.0 | 9.0 | 0.00 | 0.00 | 0.00 | 62 | 1011.9 |
| 20260506160929 | 71 | 258 | 8.0 | 14.0 | 0.00 | 0.00 | 0.00 | 62 | 1011.7 |
| 20260506160426 | 71 | 250 | 7.0 | 10.0 | 0.00 | 0.00 | 0.00 | 62 | 1011.8 |
| 20260506155923 | 71 | 219 | 9.0 | 11.0 | 0.00 | 0.00 | 0.00 | 61 | 1011.9 |
| 20260506155420 | 71 | 260 | 5.0 | 14.0 | 0.00 | 0.00 | 0.00 | 62 | 1012.0 |
| 20260506153542 | 71 | 281 | 4.0 | 11.0 | 0.00 | 0.00 | 0.00 | 64 | 1012.4 |
| 20260506153040 | 71 | 247 | 6.0 | 17.0 | 0.00 | 0.00 | 0.00 | 63 | 1012.6 |
| 20260506152537 | 72 | 247 | 9.0 | 14.0 | 0.00 | 0.00 | 0.00 | 63 | 1012.4 |
| 20260506152035 | 71 | 13 | 3.0 | 11.0 | 0.00 | 0.00 | 0.00 | 63 | 1012.7 |
| 20260506151532 | 70 | 238 | 4.0 | 8.0 | 0.00 | 0.00 | 0.00 | 65 | 1012.5 |
| 20260506151024 | 70 | 252 | 8.0 | 15.0 | 0.00 | 0.00 | 0.00 | 65 | 1012.7 |
| 20260506150520 | 70 | 187 | 2.0 | 11.0 | 0.00 | 0.00 | 0.00 | 65 | 1012.6 |
| 20260506150017 | 70 | 287 | 4.0 | 11.0 | 0.00 | 0.00 | 0.00 | 65 | 1012.6 |
| 20260506145514 | 70 | 246 | 8.0 | 11.0 | 0.00 | 0.00 | 0.00 | 66 | 1012.7 |
| 20260506145011 | 69 | 288 | 4.0 | 13.0 | 0.00 | 0.00 | 0.00 | 66 | 1012.7 |
| 20260506144507 | 70 | 237 | 14.0 | 17.0 | 0.00 | 0.00 | 0.00 | 65 | 1013.0 |
| 20260506144005 | 70 | 314 | 3.0 | 8.0 | 0.00 | 0.00 | 0.00 | 65 | 1012.4 |
| 20260506143502 | 70 | 260 | 6.0 | 21.0 | 0.00 | 0.00 | 0.00 | 66 | 1012.8 |
| 20260506143001 | 69 | 307 | 8.0 | 17.0 | 0.00 | 0.00 | 0.00 | 65 | 1012.7 |
| 20260506142458 | 69 | 276 | 6.0 | 17.0 | 0.00 | 0.00 | 0.00 | 65 | 1012.6 |
| 20260506141956 | 69 | 251 | 3.0 | 13.0 | 0.00 | 0.00 | 0.00 | 65 | 1012.3 |
| 20260506141454 | 70 | 254 | 5.0 | 15.0 | 0.00 | 0.00 | 0.00 | 65 | 1012.4 |
| 20260506140952 | 70 | 271 | 9.0 | 11.0 | 0.00 | 0.00 | 0.00 | 65 | 1012.4 |
| 20260506140449 | 70 | 30 | 1.0 | 10.0 | 0.00 | 0.00 | 0.00 | 66 | 1012.6 |
| 20260506135945 | 69 | 328 | 6.0 | 10.0 | 0.00 | 0.00 | 0.00 | 67 | 1012.5 |
| 20260506135443 | 69 | 205 | 2.0 | 10.0 | 0.00 | 0.00 | 0.00 | 68 | 1012.7 |
| 20260506134938 | 69 | 274 | 4.0 | 8.0 | 0.00 | 0.00 | 0.00 | 67 | 1012.5 |
| 20260506134435 | 69 | 232 | 2.0 | 9.0 | 0.00 | 0.00 | 0.00 | 67 | 1012.4 |
| 20260506133932 | 69 | 209 | 8.0 | 10.0 | 0.00 | 0.00 | 0.00 | 68 | 1012.4 |
| 20260506133429 | 69 | 215 | 6.0 | 18.0 | 0.00 | 0.00 | 0.00 | 68 | 1012.7 |
| 20260506132926 | 68 | 248 | 3.0 | 8.0 | 0.00 | 0.00 | 0.00 | 70 | 1012.8 |
| 20260506132423 | 68 | 239 | 3.0 | 5.0 | 0.00 | 0.00 | 0.00 | 71 | 1013.2 |
| 20260506131920 | 67 | 242 | 4.0 | 8.0 | 0.00 | 0.00 | 0.00 | 72 | 1013.2 |
| 20260506131416 | 67 | 193 | 3.0 | 11.0 | 0.00 | 0.00 | 0.00 | 73 | 1013.5 |
| 20260506130914 | 66 | 253 | 5.0 | 13.0 | 0.00 | 0.00 | 0.00 | 74 | 1013.2 |
| 20260506130410 | 66 | 227 | 2.0 | 11.0 | 0.00 | 0.00 | 0.00 | 75 | 1013.3 |
| 20260506125908 | 66 | 115 | 1.0 | 3.0 | 0.00 | 0.00 | 0.00 | 76 | 1013.0 |
| 20260506125406 | 66 | 245 | 6.0 | 7.0 | 0.00 | 0.00 | 0.00 | 75 | 1013.2 |
| 20260506124904 | 65 | 276 | 6.0 | 8.0 | 0.00 | 0.00 | 0.00 | 77 | 1013.1 |
| 20260506124401 | 64 | 257 | 6.0 | 9.0 | 0.00 | 0.00 | 0.00 | 78 | 1013.4 |
| 20260506123859 | 64 | 233 | 6.0 | 11.0 | 0.00 | 0.00 | 0.00 | 79 | 1013.1 |
| 20260506123357 | 64 | 239 | 3.0 | 3.0 | 0.00 | 0.00 | 0.00 | 79 | 1013.3 |
| 20260506122854 | 64 | 255 | 6.0 | 7.0 | 0.00 | 0.00 | 0.00 | 79 | 1013.2 |
| 20260506122350 | 63 | 288 | 8.0 | 10.0 | 0.00 | 0.00 | 0.00 | 80 | 1013.3 |
| 20260506121849 | 63 | 243 | 5.0 | 6.0 | 0.00 | 0.00 | 0.00 | 81 | 1013.0 |
| 20260506121346 | 62 | 212 | 7.0 | 9.0 | 0.00 | 0.00 | 0.00 | 82 | 1013.2 |
| 20260506120842 | 62 | 307 | 3.0 | 6.0 | 0.00 | 0.00 | 0.00 | 83 | 1013.1 |
| 20260506120340 | 62 | 183 | 2.0 | 8.0 | 0.00 | 0.00 | 0.00 | 83 | 1013.2 |
| 20260506115837 | 62 | 1 | 2.0 | 8.0 | 0.00 | 0.00 | 0.00 | 84 | 1013.5 |
| 20260506115336 | 61 | 220 | 2.0 | 13.0 | 0.00 | 0.00 | 0.00 | 85 | 1013.5 |
| 20260506114833 | 60 | 28 | 0.0 | 1.0 | 0.00 | 0.00 | 0.00 | 86 | 1013.4 |
| 20260506114331 | 60 | 319 | 2.0 | 6.0 | 0.00 | 0.00 | 0.00 | 86 | 1013.6 |
| 20260506113829 | 60 | 245 | 5.0 | 6.0 | 0.00 | 0.00 | 0.00 | 86 | 1013.8 |
| 20260506113326 | 60 | 169 | 2.0 | 9.0 | 0.00 | 0.00 | 0.00 | 86 | 1013.7 |
| 20260506112823 | 60 | 175 | 3.0 | 8.0 | 0.00 | 0.00 | 0.00 | 86 | 1014.0 |
| 20260506112320 | 60 | 304 | 3.0 | 6.0 | 0.00 | 0.00 | 0.00 | 86 | 1013.7 |
| 20260506111818 | 60 | 179 | 6.0 | 8.0 | 0.00 | 0.00 | 0.00 | 86 | 1013.7 |
| 20260506111316 | 60 | 254 | 5.0 | 8.0 | 0.00 | 0.00 | 0.00 | 86 | 1013.5 |
| 20260506110813 | 60 | 72 | 1.0 | 7.0 | 0.00 | 0.00 | 0.00 | 86 | 1013.7 |
| 20260506110310 | 60 | 204 | 3.0 | 6.0 | 0.00 | 0.00 | 0.00 | 87 | 1013.5 |
| 20260506105806 | 60 | 139 | 5.0 | 7.0 | 0.00 | 0.00 | 0.00 | 87 | 1013.6 |
| 20260506105305 | 59 | 249 | 7.0 | 8.0 | 0.00 | 0.00 | 0.00 | 87 | 1013.5 |
| 20260506104801 | 59 | 340 | 2.0 | 3.0 | 0.00 | 0.00 | 0.00 | 88 | 1013.7 |
| 20260506104258 | 59 | 287 | 4.0 | 5.0 | 0.00 | 0.00 | 0.00 | 87 | 1013.4 |
| 20260506103755 | 59 | 92 | 1.0 | 3.0 | 0.00 | 0.00 | 0.00 | 87 | 1013.7 |
| 20260506093910 | 60 | 218 | 3.0 | 7.0 | 0.00 | 0.00 | 0.00 | 85 | 1013.3 |
| 20260506093407 | 60 | 218 | 3.0 | 7.0 | 0.00 | 0.00 | 0.00 | 85 | 1013.3 |
| 20260506092905 | 60 | 358 | 1.0 | 7.0 | 0.00 | 0.00 | 0.00 | 85 | 1013.3 |
| 20260506092403 | 60 | 209 | 3.0 | 6.0 | 0.00 | 0.00 | 0.00 | 85 | 1013.3 |
| 20260506091859 | 60 | 176 | 2.0 | 7.0 | 0.00 | 0.00 | 0.00 | 85 | 1013.2 |
| 20260506091357 | 60 | 246 | 6.0 | 7.0 | 0.00 | 0.00 | 0.00 | 85 | 1013.4 |
| 20260506090854 | 60 | 271 | 5.0 | 10.0 | 0.00 | 0.00 | 0.00 | 84 | 1013.6 |
| 20260506090352 | 60 | 11 | 1.0 | 10.0 | 0.00 | 0.00 | 0.00 | 84 | 1013.3 |
| 20260506085848 | 60 | 262 | 10.0 | 13.0 | 0.00 | 0.00 | 0.00 | 84 | 1013.4 |
| 20260506085345 | 60 | 219 | 5.0 | 7.0 | 0.00 | 0.00 | 0.00 | 84 | 1013.6 |
| 20260506084841 | 61 | 323 | 2.0 | 7.0 | 0.00 | 0.00 | 0.00 | 83 | 1013.7 |
| 20260506084338 | 61 | 252 | 5.0 | 7.0 | 0.00 | 0.00 | 0.00 | 83 | 1013.7 |
| 20260506083835 | 61 | 271 | 4.0 | 7.0 | 0.00 | 0.00 | 0.00 | 83 | 1013.6 |
| 20260506083332 | 61 | 191 | 4.0 | 9.0 | 0.00 | 0.00 | 0.00 | 83 | 1013.4 |
| 20260506082829 | 61 | 251 | 7.0 | 9.0 | 0.00 | 0.00 | 0.00 | 83 | 1013.5 |
| 20260506082326 | 61 | 315 | 3.0 | 6.0 | 0.00 | 0.00 | 0.00 | 82 | 1013.5 |
| 20260506081822 | 61 | 287 | 7.0 | 10.0 | 0.00 | 0.00 | 0.00 | 82 | 1013.4 |
| 20260506081320 | 61 | 258 | 6.0 | 11.0 | 0.00 | 0.00 | 0.00 | 82 | 1013.7 |
| 20260506080817 | 61 | 284 | 4.0 | 13.0 | 0.00 | 0.00 | 0.00 | 82 | 1013.6 |
| 20260506080314 | 61 | 180 | 2.0 | 8.0 | 0.00 | 0.00 | 0.00 | 82 | 1013.5 |
| 20260506073258 | 61 | 243 | 8.0 | 11.0 | 0.00 | 0.00 | 0.00 | 81 | 1013.8 |
| 20260506072755 | 61 | 322 | 1.0 | 2.0 | 0.00 | 0.00 | 0.00 | 81 | 1013.5 |
| 20260506072252 | 62 | 260 | 3.0 | 9.0 | 0.00 | 0.00 | 0.00 | 80 | 1013.4 |
| 20260506071750 | 62 | 235 | 8.0 | 13.0 | 0.00 | 0.00 | 0.00 | 80 | 1013.5 |
| 20260506071248 | 62 | 295 | 3.0 | 7.0 | 0.00 | 0.00 | 0.00 | 80 | 1013.5 |
| 20260506070744 | 62 | 291 | 6.0 | 8.0 | 0.00 | 0.00 | 0.00 | 80 | 1013.4 |
| 20260506070241 | 62 | 222 | 7.0 | 16.0 | 0.00 | 0.00 | 0.00 | 79 | 1013.5 |
| 20260506062218 | 62 | 231 | 3.0 | 9.0 | 0.00 | 0.00 | 0.00 | 78 | 1013.3 |
| 20260506061714 | 62 | 261 | 5.0 | 11.0 | 0.00 | 0.00 | 0.00 | 78 | 1013.5 |
| 20260506061212 | 62 | 293 | 6.0 | 8.0 | 0.00 | 0.00 | 0.00 | 77 | 1013.2 |
| 20260506060711 | 62 | 198 | 5.0 | 10.0 | 0.00 | 0.00 | 0.00 | 77 | 1013.2 |
| 20260506060207 | 63 | 127 | 4.0 | 9.0 | 0.00 | 0.00 | 0.00 | 76 | 1013.3 |
| 20260506051139 | 63 | 275 | 5.0 | 11.0 | 0.00 | 0.00 | 0.00 | 72 | 1013.7 |
| 20260506050637 | 63 | 286 | 2.0 | 8.0 | 0.00 | 0.00 | 0.00 | 72 | 1013.8 |
| 20260506050134 | 64 | 246 | 5.0 | 10.0 | 0.00 | 0.00 | 0.00 | 71 | 1013.7 |
| 20260506045127 | 64 | 238 | 5.0 | 7.0 | 0.00 | 0.00 | 0.00 | 71 | 1013.7 |
| 20260506044625 | 64 | 346 | 2.0 | 11.0 | 0.00 | 0.00 | 0.00 | 71 | 1013.8 |
| 20260506044122 | 64 | 64 | 2.0 | 7.0 | 0.00 | 0.00 | 0.00 | 70 | 1013.9 |
| 20260506043619 | 64 | 236 | 7.0 | 9.0 | 0.00 | 0.00 | 0.00 | 70 | 1014.0 |
| 20260506043117 | 64 | 228 | 8.0 | 9.0 | 0.00 | 0.00 | 0.00 | 69 | 1013.7 |
| 20260506042616 | 64 | 223 | 7.0 | 10.0 | 0.00 | 0.00 | 0.00 | 69 | 1013.8 |
| 20260506042113 | 64 | 249 | 5.0 | 9.0 | 0.00 | 0.00 | 0.00 | 69 | 1013.9 |
| 20260506041612 | 64 | 353 | 3.0 | 6.0 | 0.00 | 0.00 | 0.00 | 69 | 1014.0 |
| 20260506041108 | 64 | 250 | 5.0 | 13.0 | 0.00 | 0.00 | 0.00 | 68 | 1014.0 |
| 20260506040606 | 64 | 284 | 4.0 | 13.0 | 0.00 | 0.00 | 0.00 | 68 | 1013.6 |
| 20260506035559 | 64 | 244 | 5.0 | 7.0 | 0.00 | 0.00 | 0.00 | 68 | 1013.8 |
| 20260506035056 | 64 | 235 | 7.0 | 11.0 | 0.00 | 0.00 | 0.00 | 68 | 1013.7 |
| 20260506034553 | 64 | 271 | 8.0 | 11.0 | 0.00 | 0.00 | 0.00 | 68 | 1013.4 |
| 20260506034050 | 64 | 160 | 5.0 | 9.0 | 0.00 | 0.00 | 0.00 | 67 | 1013.6 |
| 20260506033547 | 64 | 239 | 7.0 | 11.0 | 0.00 | 0.00 | 0.00 | 67 | 1013.8 |
| 20260506033044 | 64 | 302 | 5.0 | 6.0 | 0.00 | 0.00 | 0.00 | 67 | 1013.7 |
| 20260506032542 | 64 | 266 | 3.0 | 9.0 | 0.00 | 0.00 | 0.00 | 67 | 1013.6 |
| 20260506032038 | 64 | 268 | 7.0 | 8.0 | 0.00 | 0.00 | 0.00 | 67 | 1013.5 |
| 20260506031536 | 64 | 257 | 7.0 | 11.0 | 0.00 | 0.00 | 0.00 | 67 | 1013.6 |
| 20260506031033 | 64 | 266 | 8.0 | 9.0 | 0.00 | 0.00 | 0.00 | 67 | 1013.7 |
| 20260506030531 | 64 | 222 | 5.0 | 9.0 | 0.00 | 0.00 | 0.00 | 67 | 1013.7 |
| 20260506030028 | 64 | 162 | 7.0 | 11.0 | 0.00 | 0.00 | 0.00 | 67 | 1013.6 |
| 20260506025525 | 64 | 215 | 13.0 | 15.0 | 0.00 | 0.00 | 0.00 | 67 | 1013.7 |
| 20260506025021 | 64 | 202 | 9.0 | 14.0 | 0.00 | 0.00 | 0.00 | 67 | 1013.5 |
| 20260506024518 | 64 | 275 | 7.0 | 13.0 | 0.00 | 0.00 | 0.00 | 67 | 1013.5 |
| 20260506024014 | 64 | 238 | 6.0 | 8.0 | 0.00 | 0.00 | 0.00 | 68 | 1013.6 |
| 20260506023510 | 64 | 231 | 3.0 | 9.0 | 0.00 | 0.00 | 0.00 | 67 | 1013.7 |
| 20260506023008 | 64 | 293 | 5.0 | 9.0 | 0.00 | 0.00 | 0.00 | 67 | 1013.6 |
| 20260506022505 | 64 | 323 | 3.0 | 7.0 | 0.00 | 0.00 | 0.00 | 67 | 1013.5 |
| 20260506022003 | 64 | 217 | 10.0 | 14.0 | 0.00 | 0.00 | 0.00 | 67 | 1013.7 |
| 20260506021500 | 64 | 339 | 5.0 | 11.0 | 0.00 | 0.00 | 0.00 | 67 | 1013.7 |
| 20260506020957 | 63 | 210 | 7.0 | 14.0 | 0.00 | 0.00 | 0.00 | 67 | 1013.5 |
| 20260506020455 | 63 | 192 | 4.0 | 15.0 | 0.00 | 0.00 | 0.00 | 67 | 1013.5 |
| 20260506015951 | 63 | 279 | 4.0 | 6.0 | 0.00 | 0.00 | 0.00 | 67 | 1013.4 |
| 20260506015449 | 63 | 239 | 5.0 | 8.0 | 0.00 | 0.00 | 0.00 | 67 | 1013.3 |
| 20260506014946 | 63 | 252 | 4.0 | 6.0 | 0.00 | 0.00 | 0.00 | 67 | 1013.5 |
| 20260506014443 | 63 | 12 | 5.0 | 7.0 | 0.00 | 0.00 | 0.00 | 67 | 1013.5 |
| 20260506013939 | 63 | 252 | 5.0 | 8.0 | 0.00 | 0.00 | 0.00 | 66 | 1013.6 |
| 20260506013437 | 63 | 191 | 3.0 | 13.0 | 0.00 | 0.00 | 0.00 | 66 | 1013.6 |
| 20260506012933 | 63 | 314 | 5.0 | 17.0 | 0.00 | 0.00 | 0.00 | 66 | 1013.7 |
| 20260506012430 | 64 | 348 | 3.0 | 11.0 | 0.00 | 0.00 | 0.00 | 66 | 1013.4 |
| 20260506011927 | 64 | 260 | 5.0 | 7.0 | 0.00 | 0.00 | 0.00 | 65 | 1013.5 |
| 20260506011425 | 64 | 276 | 7.0 | 9.0 | 0.00 | 0.00 | 0.00 | 65 | 1013.4 |